| time (UTC) | temp F | wind direction | speed MPH | gust MPH | rain 1hr in | rain 24hr in | rain mn in | humidity % | barometer mb |
| 20260507002115 | 62 | 34 | 2.0 | 4.0 | 0.00 | 0.00 | 0.00 | 83 | 1011.7 |
| 20260507001050 | 63 | 31 | 2.0 | 4.0 | 0.00 | 0.00 | 0.00 | 82 | 1011.7 |
| 20260507000040 | 63 | 18 | 2.0 | 4.0 | 0.00 | 0.00 | 0.00 | 83 | 1011.9 |
| 20260506235031 | 63 | 354 | 2.0 | 4.0 | 0.00 | 0.00 | 0.00 | 83 | 1011.8 |
| 20260506234046 | 63 | 23 | 2.0 | 4.0 | 0.00 | 0.00 | 0.00 | 83 | 1012.0 |
| 20260506233017 | 63 | 34 | 1.0 | 4.0 | 0.00 | 0.00 | 0.00 | 83 | 1012.0 |
| 20260506232107 | 63 | 15 | 2.0 | 4.0 | 0.00 | 0.00 | 0.00 | 83 | 1012.1 |
| 20260506231056 | 63 | 3 | 3.0 | 6.0 | 0.00 | 0.00 | 0.00 | 83 | 1012.1 |
| 20260506230051 | 63 | 23 | 1.0 | 4.0 | 0.00 | 0.00 | 0.00 | 83 | 1012.1 |
| 20260506225040 | 63 | 17 | 2.0 | 4.0 | 0.00 | 0.00 | 0.00 | 83 | 1012.0 |
| 20260506224029 | 63 | 19 | 1.0 | 4.0 | 0.00 | 0.00 | 0.00 | 84 | 1012.0 |
| 20260506223019 | 63 | 32 | 2.0 | 4.0 | 0.00 | 0.00 | 0.00 | 85 | 1012.0 |
| 20260506222114 | 63 | 45 | 1.0 | 4.0 | 0.00 | 0.00 | 0.00 | 85 | 1012.2 |
| 20260506221103 | 63 | 45 | 2.0 | 4.0 | 0.00 | 0.00 | 0.00 | 85 | 1012.1 |
| 20260506220053 | 63 | 28 | 1.0 | 4.0 | 0.00 | 0.00 | 0.00 | 85 | 1012.1 |
| 20260506215041 | 63 | 72 | 4.0 | 7.0 | 0.00 | 0.00 | 0.00 | 84 | 1012.2 |
| 20260506214032 | 64 | 66 | 3.0 | 7.0 | 0.00 | 0.00 | 0.00 | 84 | 1012.4 |
| 20260506213027 | 64 | 52 | 4.0 | 7.0 | 0.00 | 0.00 | 0.00 | 84 | 1012.4 |
| 20260506212016 | 64 | 57 | 4.0 | 8.0 | 0.00 | 0.00 | 0.00 | 84 | 1012.3 |
| 20260506211126 | 64 | 62 | 4.0 | 9.0 | 0.00 | 0.00 | 0.00 | 83 | 1012.3 |
| 20260506210056 | 64 | 75 | 5.0 | 7.0 | 0.00 | 0.00 | 0.00 | 83 | 1012.3 |
| 20260506205111 | 64 | 65 | 3.0 | 7.0 | 0.00 | 0.00 | 0.00 | 82 | 1012.2 |
| 20260506204041 | 64 | 72 | 3.0 | 6.0 | 0.00 | 0.00 | 0.00 | 82 | 1012.3 |
| 20260506203031 | 64 | 45 | 3.0 | 6.0 | 0.00 | 0.00 | 0.00 | 81 | 1012.1 |
| 20260506202046 | 64 | 58 | 3.0 | 6.0 | 0.00 | 0.00 | 0.00 | 80 | 1012.0 |
| 20260506201017 | 64 | 70 | 3.0 | 6.0 | 0.00 | 0.00 | 0.00 | 80 | 1011.9 |
| 20260506200106 | 0 | 0.0 | 0.0 | 0.00 | 0.00 | 0.00 | 1011.5 | ||
| 20260506175056 | 0 | 0.0 | 0.0 | 0.00 | 0.00 | 0.00 | 1010.7 | ||
| 20260506174047 | 0 | 0.0 | 0.0 | 0.00 | 0.00 | 0.00 | 1010.6 | ||
| 20260506173056 | 0 | 0.0 | 0.0 | 0.00 | 0.00 | 0.00 | 1010.5 | ||
| 20260506172031 | 0 | 0.0 | 0.0 | 0.00 | 0.00 | 0.00 | 1010.5 | ||
| 20260506171020 | 0 | 0.0 | 0.0 | 0.00 | 0.00 | 0.00 | 1010.4 | ||
| 20260506164554 | 68 | 71 | 9.0 | 16.0 | 0.00 | 0.00 | 0.00 | 66 | 1010.4 |
| 20260506155028 | 69 | 103 | 10.0 | 17.0 | 0.00 | 0.00 | 0.00 | 67 | 1010.1 |
| 20260506154039 | 69 | 84 | 9.0 | 17.0 | 0.00 | 0.00 | 0.00 | 67 | 1010.2 |
| 20260506153108 | 70 | 75 | 10.0 | 17.0 | 0.00 | 0.00 | 0.00 | 64 | 1010.0 |
| 20260506152056 | 70 | 56 | 11.0 | 18.0 | 0.00 | 0.00 | 0.00 | 64 | 1010.0 |
| 20260506151045 | 70 | 95 | 11.0 | 18.0 | 0.00 | 0.00 | 0.00 | 65 | 1010.1 |
| 20260506150040 | 70 | 38 | 11.0 | 20.0 | 0.00 | 0.00 | 0.00 | 65 | 1010.1 |
| 20260506145031 | 71 | 81 | 9.0 | 22.0 | 0.00 | 0.00 | 0.00 | 64 | 1010.1 |
| 20260506144041 | 71 | 78 | 10.0 | 18.0 | 0.00 | 0.00 | 0.00 | 64 | 1010.0 |
| 20260506143016 | 71 | 69 | 12.0 | 25.0 | 0.00 | 0.00 | 0.00 | 62 | 1010.0 |
| 20260506142107 | 72 | 71 | 11.0 | 20.0 | 0.00 | 0.00 | 0.00 | 61 | 1010.1 |
| 20260506141058 | 73 | 78 | 10.0 | 18.0 | 0.00 | 0.00 | 0.00 | 59 | 1010.2 |
| 20260506140052 | 71 | 91 | 13.0 | 22.0 | 0.00 | 0.00 | 0.00 | 63 | 1010.2 |
| 20260506135042 | 73 | 93 | 9.0 | 17.0 | 0.00 | 0.00 | 0.00 | 60 | 1010.3 |
| 20260506134031 | 73 | 68 | 11.0 | 16.0 | 0.00 | 0.00 | 0.00 | 59 | 1010.1 |
| 20260506133021 | 74 | 63 | 9.0 | 15.0 | 0.00 | 0.00 | 0.00 | 58 | 1010.3 |
| 20260506132036 | 73 | 82 | 10.0 | 16.0 | 0.00 | 0.00 | 0.00 | 58 | 1010.4 |
| 20260506131105 | 74 | 86 | 11.0 | 18.0 | 0.00 | 0.00 | 0.00 | 56 | 1010.4 |
| 20260506130055 | 74 | 82 | 10.0 | 16.0 | 0.00 | 0.00 | 0.00 | 56 | 1010.5 |
| 20260506125045 | 74 | 83 | 10.0 | 17.0 | 0.00 | 0.00 | 0.00 | 57 | 1010.6 |
| 20260506124040 | 75 | 87 | 8.0 | 16.0 | 0.00 | 0.00 | 0.00 | 56 | 1010.6 |
| 20260506123031 | 73 | 61 | 11.0 | 21.0 | 0.00 | 0.00 | 0.00 | 58 | 1010.8 |
| 20260506122021 | 74 | 82 | 11.0 | 17.0 | 0.00 | 0.00 | 0.00 | 56 | 1010.7 |
| 20260506121036 | 75 | 79 | 7.0 | 14.0 | 0.00 | 0.00 | 0.00 | 53 | 1010.8 |
| 20260506120107 | 74 | 89 | 7.0 | 15.0 | 0.00 | 0.00 | 0.00 | 52 | 1010.9 |
| 20260506115057 | 74 | 87 | 6.0 | 14.0 | 0.00 | 0.00 | 0.00 | 52 | 1010.9 |
| 20260506114053 | 74 | 63 | 5.0 | 11.0 | 0.00 | 0.00 | 0.00 | 52 | 1011.2 |
| 20260506113103 | 73 | 64 | 8.0 | 14.0 | 0.00 | 0.00 | 0.00 | 51 | 1011.1 |
| 20260506112033 | 73 | 45 | 5.0 | 13.0 | 0.00 | 0.00 | 0.00 | 52 | 1011.3 |
| 20260506111028 | 73 | 63 | 8.0 | 16.0 | 0.00 | 0.00 | 0.00 | 51 | 1011.3 |
| 20260506110018 | 73 | 48 | 6.0 | 13.0 | 0.00 | 0.00 | 0.00 | 52 | 1011.3 |
| 20260506105108 | 73 | 58 | 6.0 | 15.0 | 0.00 | 0.00 | 0.00 | 52 | 1011.4 |
| 20260506104057 | 73 | 96 | 6.0 | 13.0 | 0.00 | 0.00 | 0.00 | 53 | 1011.5 |
| 20260506103052 | 72 | 81 | 5.0 | 11.0 | 0.00 | 0.00 | 0.00 | 55 | 1011.6 |
| 20260506102103 | 72 | 63 | 4.0 | 9.0 | 0.00 | 0.00 | 0.00 | 56 | 1011.6 |
| 20260506101033 | 73 | 90 | 4.0 | 11.0 | 0.00 | 0.00 | 0.00 | 56 | 1011.7 |
| 20260506100028 | 70 | 22 | 4.0 | 8.0 | 0.00 | 0.00 | 0.00 | 60 | 1011.7 |
| 20260506095019 | 71 | 27 | 2.0 | 6.0 | 0.00 | 0.00 | 0.00 | 58 | 1011.9 |
| 20260506094108 | 71 | 28 | 4.0 | 11.0 | 0.00 | 0.00 | 0.00 | 59 | 1011.9 |
| 20260506093057 | 71 | 86 | 4.0 | 8.0 | 0.00 | 0.00 | 0.00 | 58 | 1011.8 |
| 20260506092112 | 71 | 132 | 4.0 | 9.0 | 0.00 | 0.00 | 0.00 | 60 | 1011.7 |
| 20260506091043 | 70 | 97 | 4.0 | 8.0 | 0.00 | 0.00 | 0.00 | 62 | 1011.6 |
| 20260506090033 | 69 | 116 | 1.0 | 4.0 | 0.00 | 0.00 | 0.00 | 63 | 1011.5 |
| 20260506085109 | 69 | 94 | 3.0 | 6.0 | 0.00 | 0.00 | 0.00 | 64 | 1011.6 |
| 20260506084018 | 70 | 338 | 1.0 | 4.0 | 0.00 | 0.00 | 0.00 | 63 | 1011.5 |
| 20260506083127 | 68 | 98 | 1.0 | 4.0 | 0.00 | 0.00 | 0.00 | 66 | 1011.7 |
| 20260506082058 | 69 | 61 | 1.0 | 4.0 | 0.00 | 0.00 | 0.00 | 60 | 1011.7 |
| 20260506081052 | 69 | 52 | 1.0 | 2.0 | 0.00 | 0.00 | 0.00 | 57 | 1011.6 |
| 20260506073018 | 67 | 293 | 1.0 | 2.0 | 0.00 | 0.00 | 0.00 | 54 | 1011.6 |
| 20260506072109 | 68 | 315 | 0.0 | 2.0 | 0.00 | 0.00 | 0.00 | 53 | 1011.5 |
| 20260506071104 | 66 | 338 | 0.0 | 2.0 | 0.00 | 0.00 | 0.00 | 56 | 1011.7 |
| 20260506062021 | 62 | 45 | 2.0 | 4.0 | 0.00 | 0.00 | 0.00 | 56 | 1011.5 |
| 20260506061016 | 62 | 44 | 2.0 | 4.0 | 0.00 | 0.00 | 0.00 | 58 | 1011.5 |
| 20260506060107 | 61 | 26 | 2.0 | 4.0 | 0.00 | 0.00 | 0.00 | 57 | 1011.4 |
| 20260506051021 | 59 | 315 | 0.0 | 2.0 | 0.00 | 0.00 | 0.00 | 58 | 1010.7 |
| 20260506045105 | 58 | 315 | 1.0 | 4.0 | 0.00 | 0.00 | 0.00 | 62 | 1010.5 |
| 20260506044054 | 58 | 0.0 | 0.0 | 0.00 | 0.00 | 0.00 | 62 | 1010.4 | |
| 20260506043045 | 59 | 0.0 | 0.0 | 0.00 | 0.00 | 0.00 | 62 | 1010.4 | |
| 20260506042040 | 59 | 307 | 1.0 | 2.0 | 0.00 | 0.00 | 0.00 | 62 | 1010.4 |
| 20260506041031 | 59 | 308 | 1.0 | 4.0 | 0.00 | 0.00 | 0.00 | 62 | 1010.4 |
| 20260506040021 | 59 | 293 | 2.0 | 4.0 | 0.00 | 0.00 | 0.00 | 63 | 1010.5 |
| 20260506035016 | 60 | 311 | 1.0 | 4.0 | 0.00 | 0.00 | 0.00 | 62 | 1010.5 |
| 20260506034107 | 60 | 293 | 2.0 | 2.0 | 0.00 | 0.00 | 0.00 | 63 | 1010.6 |
| 20260506033058 | 60 | 315 | 1.0 | 4.0 | 0.00 | 0.00 | 0.00 | 64 | 1010.6 |
| 20260506032052 | 60 | 300 | 2.0 | 4.0 | 0.00 | 0.00 | 0.00 | 65 | 1010.6 |
| 20260506031043 | 59 | 296 | 2.0 | 4.0 | 0.00 | 0.00 | 0.00 | 67 | 1010.6 |
| 20260506030033 | 59 | 277 | 2.0 | 4.0 | 0.00 | 0.00 | 0.00 | 67 | 1010.6 |
| 20260506025028 | 60 | 290 | 2.0 | 4.0 | 0.00 | 0.00 | 0.00 | 66 | 1010.6 |
| 20260506024018 | 61 | 270 | 1.0 | 2.0 | 0.00 | 0.00 | 0.00 | 66 | 1010.7 |
| 20260506023128 | 60 | 297 | 1.0 | 4.0 | 0.00 | 0.00 | 0.00 | 66 | 1010.6 |
| 20260506022117 | 61 | 296 | 1.0 | 2.0 | 0.00 | 0.00 | 0.00 | 66 | 1010.6 |
| 20260506021052 | 61 | 315 | 1.0 | 2.0 | 0.00 | 0.00 | 0.00 | 66 | 1010.7 |
| 20260506020042 | 61 | 270 | 1.0 | 2.0 | 0.00 | 0.00 | 0.00 | 67 | 1010.7 |
| 20260506015053 | 61 | 287 | 1.0 | 2.0 | 0.00 | 0.00 | 0.00 | 66 | 1010.6 |
| 20260506014028 | 61 | 307 | 2.0 | 4.0 | 0.00 | 0.00 | 0.00 | 65 | 1010.7 |
| 20260506013019 | 62 | 306 | 2.0 | 4.0 | 0.00 | 0.00 | 0.00 | 67 | 1010.6 |
| 20260506012110 | 61 | 270 | 1.0 | 4.0 | 0.00 | 0.00 | 0.00 | 70 | 1010.7 |
| 20260506011105 | 62 | 318 | 2.0 | 4.0 | 0.00 | 0.00 | 0.00 | 70 | 1010.7 |
| 20260506010055 | 62 | 338 | 0.0 | 2.0 | 0.00 | 0.00 | 0.00 | 72 | 1010.8 |
| 20260506005045 | 63 | 338 | 0.0 | 2.0 | 0.00 | 0.00 | 0.00 | 73 | 1010.8 |
| 20260506004040 | 62 | 338 | 0.0 | 2.0 | 0.00 | 0.00 | 0.00 | 75 | 1010.8 |
| 20260506003031 | 63 | 338 | 0.0 | 2.0 | 0.00 | 0.00 | 0.00 | 75 | 1010.8 |